Total_Precipitation_Accumulation
-0.31 -0.47 -0.58 -0.58 -0.58 -0.60 -0.68 -0.61 -0.47 -0.47 -0.39 -0.38 -0.28 -0.28 -0.24 -0.19 -0.06 -0.06 0.00 -0.05 -0.05 -0.10 -0.05 0.01 0.01 0.10 0.05 0.08 0.20 0.20 0.42 0.34 0.36 0.36 0.34 0.26 0.48 0.48 0.92 0.97 0.97 1.41 1.88 2.23 2.23 2.10 1.66 1.68 1.68 2.32 2.24 2.77 2.31 2.31 1.17 1.15 1.15 1.49 1.65 1.63 1.63 1.19 0.98 0.84 0.84 0.77 0.63 0.59 0.44 0.44 0.37 0.46 0.51 0.51 0.66 0.62 0.55 0.55 0.29 0.20 0.20 0.10 0.09 0.06 0.06 0.05
-0.25 -0.27 -0.63 -0.64 -0.64 -0.59 -0.64 -0.62 -0.54 -0.54 -0.44 -0.39 -0.40 -0.40 -0.20 -0.24 -0.21 -0.21 -0.17 -0.06 -0.06 -0.01 -0.04 -0.02 -0.02 0.02 0.01 0.07 0.09 0.09 0.10 0.13 0.33 0.33 0.27 0.25 0.36 0.36 0.84 0.76 0.76 0.92 1.17 1.48 1.48 2.45 2.03 1.93 1.93 2.50 2.34 2.77 2.26 2.26 1.46 1.23 1.23 1.25 1.53 1.49 1.49 1.13 0.98 0.87 0.87 0.87 0.74 0.70 0.60 0.60 0.51 0.68 0.69 0.69 0.62 0.47 0.39 0.39 0.16 0.12 0.12 0.09 0.07 0.04 0.04 0.03
-0.29 -0.31 -0.46 -0.65 -0.65 -0.60 -0.60 -0.62 -0.60 -0.60 -0.46 -0.38 -0.42 -0.42 -0.23 -0.23 -0.22 -0.22 -0.18 -0.09 -0.09 0.00 0.01 -0.02 -0.02 -0.02 -0.00 0.05 0.09 0.09 0.09 0.09 0.26 0.26 0.24 0.21 0.29 0.29 0.54 0.49 0.49 0.76 1.05 1.40 1.40 2.15 2.57 2.23 2.23 2.04 2.41 2.75 2.22 2.22 1.57 1.34 1.34 1.40 1.52 1.43 1.43 1.27 1.16 1.04 1.04 0.95 0.82 0.79 0.74 0.74 0.70 0.79 0.70 0.70 0.48 0.39 0.32 0.32 0.19 0.13 0.13 0.09 0.08 0.06 0.06 0.04
-0.30 -0.37 -0.40 -0.47 -0.47 -0.57 -0.54 -0.59 -0.71 -0.71 -0.62 -0.48 -0.54 -0.54 -0.43 -0.31 -0.17 -0.17 -0.15 -0.07 -0.07 -0.03 -0.04 -0.02 -0.02 -0.06 -0.06 0.05 0.09 0.09 0.10 0.11 0.19 0.19 0.19 0.19 0.20 0.20 0.26 0.31 0.31 0.72 1.09 1.36 1.36 1.96 2.48 2.11 2.11 2.24 2.38 2.39 2.77 2.77 1.76 1.53 1.53 1.55 1.56 1.32 1.32 1.31 1.19 1.11 1.11 1.05 0.95 0.85 0.87 0.87 0.87 0.69 0.57 0.57 0.44 0.36 0.28 0.28 0.17 0.11 0.11 0.11 0.08 0.07 0.07 0.06
-0.32 -0.39 -0.35 -0.40 -0.40 -0.58 -0.58 -0.58 -0.74 -0.74 -0.76 -0.66 -0.63 -0.63 -0.51 -0.38 -0.11 -0.11 -0.09 -0.07 -0.07 -0.06 -0.07 -0.02 -0.02 -0.06 -0.04 -0.01 0.05 0.05 0.10 0.14 0.20 0.20 0.21 0.25 0.23 0.23 0.24 0.29 0.29 0.43 0.80 1.26 1.26 1.65 2.07 1.82 1.82 2.35 2.19 2.35 2.66 2.66 2.16 1.90 1.90 1.73 1.82 1.72 1.72 1.31 1.21 1.08 1.08 1.02 0.94 0.88 0.88 0.88 0.87 0.74 0.64 0.64 0.52 0.42 0.35 0.35 0.24 0.17 0.17 0.14 0.10 0.07 0.07 0.07
-0.21 -0.33 -0.29 -0.37 -0.37 -0.48 -0.59 -0.61 -0.64 -0.64 -0.68 -0.73 -0.61 -0.61 -0.55 -0.42 -0.37 -0.37 -0.15 -0.17 -0.17 -0.13 -0.13 -0.02 -0.02 -0.01 -0.01 0.02 0.11 0.11 0.13 0.13 0.16 0.16 0.22 0.28 0.24 0.24 0.25 0.35 0.35 0.57 0.87 1.30 1.30 1.46 1.55 1.66 1.66 1.65 1.89 2.19 2.44 2.44 2.00 1.92 1.92 1.88 1.86 1.82 1.82 1.72 1.35 1.13 1.13 0.94 0.99 0.88 0.86 0.86 0.82 0.71 0.61 0.61 0.49 0.36 0.31 0.31 0.25 0.21 0.21 0.18 0.16 0.12 0.12 0.10
-0.19 -0.21 -0.20 -0.31 -0.31 -0.37 -0.49 -0.51 -0.54 -0.54 -0.60 -0.67 -0.61 -0.61 -0.53 -0.44 -0.42 -0.42 -0.33 -0.15 -0.15 -0.16 -0.07 -0.07 -0.07 -0.01 0.01 0.04 0.12 0.12 0.17 0.16 0.14 0.14 0.22 0.29 0.36 0.36 0.32 0.43 0.43 0.63 0.92 1.53 1.53 1.60 1.63 1.71 1.71 1.71 1.93 1.95 1.87 1.87 1.66 1.72 1.72 1.85 1.58 1.69 1.69 1.59 1.08 0.98 0.98 0.90 0.96 0.87 0.89 0.89 0.87 0.75 0.64 0.64 0.52 0.36 0.29 0.29 0.22 0.20 0.20 0.13 0.13 0.11 0.11 0.06
-0.25 -0.26 -0.25 -0.23 -0.23 -0.29 -0.35 -0.42 -0.46 -0.46 -0.43 -0.51 -0.55 -0.55 -0.59 -0.59 -0.59 -0.59 -0.52 -0.46 -0.46 -0.35 0.07 0.10 0.10 -0.01 0.06 0.08 0.05 0.05 0.05 0.08 0.10 0.10 0.16 0.26 0.42 0.42 0.62 0.83 0.83 0.91 0.98 1.47 1.47 1.70 1.99 2.38 2.38 2.72 2.72 2.77 2.01 2.01 1.98 1.71 1.71 1.49 1.27 0.98 0.98 0.83 0.83 0.93 0.93 0.99 1.05 1.06 1.10 1.10 1.09 0.83 0.64 0.64 0.45 0.26 0.21 0.21 0.16 0.13 0.13 0.10 0.05 0.04 0.04 0.00
-0.17 -0.27 -0.24 -0.22 -0.22 -0.25 -0.33 -0.39 -0.43 -0.43 -0.46 -0.46 -0.45 -0.45 -0.51 -0.58 -0.56 -0.56 -0.58 -0.55 -0.55 -0.45 -0.36 -0.15 -0.15 0.10 0.09 0.10 0.07 0.07 0.09 0.11 0.13 0.13 0.17 0.21 0.28 0.28 0.39 0.70 0.70 1.04 1.25 1.64 1.64 1.87 2.13 2.67 2.67 3.02 3.61 4.04 3.47 3.47 2.80 2.30 2.30 1.96 1.42 1.05 1.05 0.84 1.04 0.98 0.98 0.95 1.02 1.07 1.15 1.15 1.12 0.81 0.68 0.68 0.53 0.34 0.25 0.25 0.16 0.13 0.13 0.10 0.05 0.01 0.01 0.00
-0.17 -0.16 -0.17 -0.23 -0.23 -0.21 -0.28 -0.33 -0.38 -0.38 -0.44 -0.48 -0.52 -0.52 -0.45 -0.49 -0.49 -0.49 -0.57 -0.54 -0.54 -0.46 -0.39 -0.25 -0.25 -0.02 0.02 0.09 0.09 0.09 0.08 0.10 0.13 0.13 0.15 0.17 0.21 0.21 0.30 0.33 0.33 0.56 0.89 1.06 1.06 1.53 2.28 2.82 2.82 3.34 3.85 3.79 3.64 3.64 2.94 2.52 2.52 2.14 1.93 1.75 1.75 1.43 1.40 1.17 1.17 0.99 1.04 1.12 1.03 1.03 0.93 0.81 0.53 0.53 0.44 0.30 0.22 0.22 0.12 0.11 0.11 0.09 0.04 0.02 0.02 0.01
-0.19 -0.16 -0.18 -0.23 -0.23 -0.26 -0.25 -0.29 -0.33 -0.33 -0.39 -0.48 -0.57 -0.57 -0.56 -0.32 -0.36 -0.36 -0.42 -0.46 -0.46 -0.43 -0.39 -0.29 -0.29 -0.12 -0.05 0.05 0.06 0.06 0.05 0.06 0.09 0.09 0.15 0.18 0.19 0.19 0.23 0.27 0.27 0.39 0.66 0.81 0.81 1.21 1.74 2.30 2.30 2.92 3.31 3.64 3.45 3.45 2.98 2.48 2.48 2.22 2.10 1.96 1.96 1.67 1.27 1.14 1.14 0.99 1.00 1.09 0.95 0.95 0.86 0.78 0.47 0.47 0.40 0.32 0.17 0.17 0.09 0.08 0.08 0.07 0.04 0.02 0.02 0.02
-0.21 -0.22 -0.22 -0.23 -0.23 -0.27 -0.29 -0.31 -0.32 -0.32 -0.36 -0.46 -0.51 -0.51 -0.57 -0.47 -0.43 -0.43 -0.40 -0.37 -0.37 -0.38 -0.33 -0.29 -0.29 -0.17 -0.10 -0.02 0.04 0.04 0.07 0.11 0.14 0.14 0.16 0.21 0.25 0.25 0.25 0.33 0.33 0.37 0.45 0.65 0.65 1.03 1.48 2.02 2.02 2.66 3.04 3.22 3.68 3.68 3.50 3.27 3.27 2.69 2.27 1.54 1.54 1.42 1.15 1.05 1.05 0.96 1.07 1.04 0.81 0.81 0.72 0.61 0.36 0.36 0.32 0.29 0.24 0.24 0.14 0.07 0.07 0.06 0.04 0.03 0.03 0.01
-0.22 -0.23 -0.23 -0.26 -0.26 -0.25 -0.27 -0.26 -0.32 -0.32 -0.35 -0.27 -0.32 -0.32 -0.38 -0.43 -0.41 -0.41 -0.43 -0.36 -0.36 -0.33 -0.31 -0.33 -0.33 -0.29 -0.20 -0.05 0.01 0.01 0.05 0.11 0.17 0.17 0.18 0.22 0.36 0.36 0.40 0.41 0.41 0.48 0.49 0.65 0.65 0.77 1.40 1.75 1.75 2.36 2.79 2.84 3.17 3.17 3.50 3.31 3.31 3.00 2.08 1.47 1.47 1.24 1.21 1.07 1.07 1.01 1.08 0.99 0.74 0.74 0.57 0.46 0.32 0.32 0.29 0.27 0.22 0.22 0.12 0.06 0.06 0.05 0.03 0.02 0.02 0.01
-0.29 -0.27 -0.25 -0.25 -0.25 -0.23 -0.17 -0.20 -0.24 -0.24 -0.28 -0.20 -0.24 -0.24 -0.25 -0.29 -0.38 -0.38 -0.42 -0.40 -0.40 -0.33 -0.33 -0.33 -0.33 -0.27 -0.18 -0.12 -0.07 -0.07 -0.03 -0.02 0.13 0.13 0.17 0.26 0.36 0.36 0.40 0.44 0.44 0.60 0.63 0.79 0.79 0.94 1.14 1.32 1.32 1.72 2.29 2.63 2.77 2.77 3.13 2.86 2.86 2.71 1.87 1.44 1.44 1.31 1.23 1.04 1.04 1.07 0.93 0.82 0.55 0.55 0.45 0.40 0.28 0.28 0.29 0.25 0.25 0.25 0.20 0.10 0.10 0.06 0.03 0.03 0.03 0.02
-0.29 -0.29 -0.29 -0.23 -0.23 -0.18 -0.14 -0.17 -0.19 -0.19 -0.18 -0.20 -0.23 -0.23 -0.27 -0.31 -0.35 -0.35 -0.38 -0.41 -0.41 -0.33 -0.32 -0.30 -0.30 -0.24 -0.16 -0.10 -0.04 -0.04 -0.05 -0.03 -0.00 -0.00 0.07 0.19 0.33 0.33 0.41 0.62 0.62 0.78 0.76 1.04 1.04 1.17 1.22 1.45 1.45 1.84 2.33 2.77 2.69 2.69 2.60 2.25 2.25 2.32 1.94 1.75 1.75 1.51 1.33 1.06 1.06 1.01 0.79 0.62 0.45 0.45 0.34 0.30 0.22 0.22 0.23 0.22 0.25 0.25 0.20 0.10 0.10 0.05 0.02 0.02 0.02 0.01
-0.35 -0.40 -0.35 -0.28 -0.28 -0.19 -0.20 -0.16 -0.17 -0.17 -0.17 -0.21 -0.23 -0.23 -0.29 -0.35 -0.31 -0.31 -0.36 -0.36 -0.36 -0.34 -0.29 -0.29 -0.29 -0.28 -0.10 -0.06 -0.01 -0.01 -0.03 -0.03 -0.00 -0.00 0.03 0.20 0.38 0.38 0.49 0.67 0.67 0.79 1.05 1.26 1.26 1.29 1.33 1.70 1.70 2.05 2.51 2.82 2.46 2.46 2.21 2.02 2.02 2.08 1.92 1.74 1.74 1.52 1.29 1.17 1.17 1.08 0.92 0.75 0.55 0.55 0.42 0.30 0.22 0.22 0.17 0.13 0.18 0.18 0.21 0.13 0.13 0.04 0.01 0.01 0.01 0.01
-0.42 -0.51 -0.49 -0.39 -0.39 -0.30 -0.30 -0.24 -0.21 -0.21 -0.18 -0.24 -0.23 -0.23 -0.28 -0.29 -0.27 -0.27 -0.28 -0.28 -0.28 -0.28 -0.21 -0.20 -0.20 -0.23 -0.12 -0.08 -0.03 -0.03 -0.01 -0.01 -0.00 -0.00 0.04 0.19 0.38 0.38 0.51 0.59 0.59 0.81 1.19 1.58 1.58 1.59 1.52 2.14 2.14 2.19 2.42 3.04 2.80 2.80 2.33 2.34 2.34 2.17 1.92 1.80 1.80 1.53 1.32 1.21 1.21 1.09 0.88 0.70 0.49 0.49 0.40 0.29 0.21 0.21 0.12 0.13 0.15 0.15 0.23 0.21 0.21 0.17 0.10 0.02 0.02 0.00
-0.39 -0.42 -0.54 -0.54 -0.54 -0.41 -0.39 -0.31 -0.25 -0.25 -0.23 -0.28 -0.27 -0.27 -0.28 -0.26 -0.23 -0.23 -0.21 -0.21 -0.21 -0.23 -0.16 -0.15 -0.15 -0.13 -0.06 -0.04 0.03 0.03 0.00 -0.03 0.01 0.01 0.03 0.12 0.20 0.20 0.40 0.40 0.40 0.65 1.20 1.74 1.74 2.03 2.08 2.90 2.90 2.90 2.93 2.87 2.76 2.76 2.54 2.87 2.87 2.89 2.53 2.42 2.42 1.95 1.68 1.29 1.29 1.14 0.86 0.64 0.49 0.49 0.40 0.29 0.22 0.22 0.13 0.11 0.15 0.15 0.17 0.20 0.20 0.19 0.09 0.04 0.04 0.02
-0.37 -0.37 -0.44 -0.53 -0.53 -0.57 -0.47 -0.35 -0.27 -0.27 -0.26 -0.23 -0.26 -0.26 -0.30 -0.26 -0.23 -0.23 -0.20 -0.16 -0.16 -0.16 -0.13 -0.13 -0.13 -0.08 -0.04 -0.00 0.02 0.02 0.01 -0.02 -0.01 -0.01 0.05 0.25 0.27 0.27 0.24 0.23 0.23 0.23 0.43 0.70 0.70 1.34 2.71 2.41 2.41 2.61 2.78 2.13 2.41 2.41 2.67 2.56 2.56 2.93 2.76 2.75 2.75 2.26 1.96 1.33 1.33 1.02 0.78 0.68 0.55 0.55 0.40 0.40 0.31 0.31 0.19 0.16 0.17 0.17 0.18 0.11 0.11 0.12 0.13 0.07 0.07 0.04
-0.32 -0.34 -0.38 -0.47 -0.47 -0.55 -0.55 -0.51 -0.40 -0.40 -0.25 -0.23 -0.23 -0.23 -0.24 -0.22 -0.20 -0.20 -0.17 -0.14 -0.14 -0.13 -0.15 -0.15 -0.15 -0.13 -0.11 -0.07 -0.01 -0.01 -0.01 -0.02 -0.01 -0.01 0.04 0.08 0.39 0.39 0.33 0.32 0.32 0.26 0.39 0.67 0.67 0.85 1.37 1.16 1.16 1.46 1.69 1.39 1.61 1.61 1.84 1.78 1.78 2.47 2.81 2.27 2.27 2.39 1.85 1.49 1.49 1.04 0.75 0.63 0.50 0.50 0.40 0.40 0.30 0.30 0.21 0.16 0.08 0.08 0.08 0.10 0.10 0.10 0.10 0.08 0.08 0.04
-0.31 -0.31 -0.31 -0.39 -0.39 -0.49 -0.45 -0.47 -0.46 -0.46 -0.40 -0.39 -0.30 -0.30 -0.20 -0.19 -0.15 -0.15 -0.12 -0.13 -0.13 -0.13 -0.15 -0.17 -0.17 -0.14 -0.14 -0.13 -0.10 -0.10 -0.02 -0.03 -0.03 -0.03 -0.00 0.02 0.06 0.06 0.19 0.08 0.08 0.27 0.53 0.67 0.67 0.76 0.97 1.01 1.01 1.08 1.21 1.04 1.26 1.26 1.50 1.30 1.30 1.42 1.63 0.99 0.99 1.30 1.08 1.27 1.27 1.32 0.93 0.72 0.60 0.60 0.52 0.45 0.38 0.38 0.26 0.16 0.10 0.10 0.08 0.11 0.11 0.12 0.12 0.09 0.09 0.05
-0.33 -0.30 -0.26 -0.32 -0.32 -0.41 -0.39 -0.43 -0.44 -0.44 -0.44 -0.41 -0.38 -0.38 -0.27 -0.21 -0.18 -0.18 -0.14 -0.10 -0.10 -0.12 -0.12 -0.15 -0.15 -0.15 -0.19 -0.20 -0.15 -0.15 -0.05 -0.05 -0.03 -0.03 0.00 -0.00 0.06 0.06 0.05 0.06 0.06 0.03 0.09 0.17 0.17 0.35 0.90 0.85 0.85 0.87 0.88 0.76 0.92 0.92 1.10 0.85 0.85 0.92 0.89 0.65 0.65 0.83 1.08 0.86 0.86 0.96 0.84 0.68 0.57 0.57 0.53 0.48 0.30 0.30 0.19 0.13 0.12 0.12 0.11 0.08 0.08 0.09 0.10 0.06 0.06 0.06
-0.34 -0.30 -0.28 -0.26 -0.26 -0.36 -0.39 -0.44 -0.44 -0.44 -0.42 -0.41 -0.34 -0.34 -0.29 -0.22 -0.18 -0.18 -0.14 -0.10 -0.10 -0.11 -0.10 -0.09 -0.09 -0.12 -0.23 -0.26 -0.21 -0.21 -0.17 -0.10 -0.05 -0.05 -0.04 -0.01 0.08 0.08 0.09 0.08 0.08 0.05 0.06 0.17 0.17 0.21 0.37 0.49 0.49 0.63 0.71 0.56 0.55 0.55 0.62 0.49 0.49 0.51 0.54 0.46 0.46 0.63 0.73 0.67 0.67 0.78 0.80 0.67 0.56 0.56 0.52 0.43 0.25 0.25 0.18 0.14 0.08 0.08 0.07 0.08 0.08 0.04 0.05 0.02 0.02 0.02
-0.43 -0.37 -0.31 -0.28 -0.28 -0.29 -0.33 -0.37 -0.45 -0.45 -0.44 -0.44 -0.38 -0.38 -0.28 -0.22 -0.24 -0.24 -0.17 -0.12 -0.12 -0.12 -0.10 -0.09 -0.09 -0.11 -0.21 -0.23 -0.27 -0.27 -0.27 -0.20 -0.15 -0.15 -0.11 0.00 0.07 0.07 0.10 0.10 0.10 0.09 0.10 0.21 0.21 0.23 0.34 0.51 0.51 0.61 0.64 0.49 0.45 0.45 0.47 0.39 0.39 0.39 0.41 0.45 0.45 0.51 0.56 0.59 0.59 0.63 0.61 0.70 0.66 0.66 0.49 0.49 0.39 0.39 0.21 0.14 0.04 0.04 0.02 0.02 0.02 0.00 0.01 0.00 0.00 0.00
-0.43 -0.36 -0.33 -0.33 -0.33 -0.33 -0.30 -0.33 -0.39 -0.39 -0.43 -0.34 -0.34 -0.34 -0.33 -0.29 -0.20 -0.20 -0.18 -0.13 -0.13 -0.16 -0.13 -0.15 -0.15 -0.19 -0.20 -0.23 -0.29 -0.29 -0.27 -0.21 -0.19 -0.19 -0.16 -0.11 -0.02 -0.02 0.04 0.05 0.05 0.07 0.08 0.15 0.15 0.17 0.33 0.45 0.45 0.55 0.58 0.43 0.39 0.39 0.40 0.36 0.36 0.36 0.38 0.38 0.38 0.46 0.53 0.48 0.48 0.55 0.46 0.55 0.55 0.55 0.36 0.33 0.31 0.31 0.12 0.07 0.01 0.01 0.00 0.00 0.00 0.00 0.00 0.00 0.00 0.00
-0.44 -0.37 -0.29 -0.27 -0.27 -0.27 -0.25 -0.26 -0.28 -0.28 -0.32 -0.27 -0.26 -0.26 -0.25 -0.24 -0.22 -0.22 -0.22 -0.20 -0.20 -0.17 -0.20 -0.21 -0.21 -0.21 -0.17 -0.21 -0.27 -0.27 -0.24 -0.20 -0.18 -0.18 -0.17 -0.10 -0.04 -0.04 0.01 0.05 0.05 0.07 0.08 0.13 0.13 0.17 0.27 0.37 0.37 0.33 0.34 0.38 0.40 0.40 0.41 0.35 0.35 0.34 0.34 0.31 0.31 0.35 0.36 0.29 0.29 0.33 0.26 0.31 0.38 0.38 0.28 0.25 0.20 0.20 0.11 0.07 0.01 0.01 0.00 0.00 0.00 0.00 0.00 0.00 0.00 0.00
-0.36 -0.41 -0.40 -0.28 -0.28 -0.26 -0.26 -0.25 -0.26 -0.26 -0.26 -0.24 -0.22 -0.22 -0.21 -0.21 -0.21 -0.21 -0.22 -0.19 -0.19 -0.12 -0.14 -0.16 -0.16 -0.18 -0.16 -0.17 -0.20 -0.20 -0.20 -0.17 -0.15 -0.15 -0.14 -0.10 -0.04 -0.04 0.02 0.05 0.05 0.07 0.09 0.13 0.13 0.20 0.31 0.31 0.31 0.30 0.31 0.44 0.45 0.45 0.41 0.35 0.35 0.31 0.29 0.21 0.21 0.23 0.27 0.14 0.14 0.19 0.13 0.19 0.25 0.25 0.18 0.18 0.15 0.15 0.07 0.04 0.00 0.00 -0.00 -0.00 -0.00 0.00 0.00 0.00 0.00 0.00
-0.31 -0.36 -0.39 -0.37 -0.37 -0.34 -0.30 -0.26 -0.25 -0.25 -0.25 -0.22 -0.20 -0.20 -0.19 -0.19 -0.19 -0.19 -0.16 -0.13 -0.13 -0.11 -0.11 -0.12 -0.12 -0.14 -0.12 -0.14 -0.17 -0.17 -0.15 -0.16 -0.14 -0.14 -0.12 -0.08 -0.07 -0.07 -0.02 0.03 0.03 0.06 0.07 0.10 0.10 0.13 0.26 0.22 0.22 0.29 0.34 0.38 0.43 0.43 0.40 0.29 0.29 0.26 0.22 0.16 0.16 0.14 0.12 0.06 0.06 0.08 0.13 0.08 0.13 0.13 0.07 0.09 0.09 0.09 0.01 0.00 0.00 0.00 -0.00 -0.00 -0.00 0.00 0.00 0.00 0.00 0.00
-0.29 -0.34 -0.37 -0.38 -0.38 -0.37 -0.34 -0.30 -0.26 -0.26 -0.24 -0.25 -0.23 -0.23 -0.21 -0.18 -0.13 -0.13 -0.10 -0.08 -0.08 -0.11 -0.10 -0.09 -0.09 -0.10 -0.11 -0.12 -0.13 -0.13 -0.14 -0.14 -0.11 -0.11 -0.09 -0.06 -0.03 -0.03 -0.01 0.02 0.02 0.06 0.07 0.10 0.10 0.11 0.11 0.09 0.09 0.13 0.19 0.17 0.27 0.27 0.35 0.24 0.24 0.23 0.21 0.12 0.12 0.12 0.10 0.04 0.04 0.04 0.03 0.01 0.02 0.02 0.01 0.02 0.02 0.02 0.00 0.00 0.00 0.00 0.00 0.00 0.00 0.00 0.00 0.00 0.00 0.00
-0.27 -0.31 -0.36 -0.38 -0.38 -0.38 -0.37 -0.36 -0.32 -0.32 -0.27 -0.29 -0.26 -0.26 -0.23 -0.23 -0.15 -0.15 -0.11 -0.08 -0.08 -0.10 -0.11 -0.10 -0.10 -0.08 -0.10 -0.13 -0.13 -0.13 -0.12 -0.10 -0.07 -0.07 -0.06 -0.04 -0.02 -0.02 0.00 0.01 0.01 0.05 0.07 0.09 0.09 0.10 0.09 0.06 0.06 0.08 0.10 0.08 0.14 0.14 0.22 0.11 0.11 0.12 0.12 0.03 0.03 0.04 0.04 0.01 0.01 0.01 0.01 0.00 0.00 0.00 0.00 0.00 0.00 0.00 0.00 0.00 0.00 0.00 0.00 0.00 0.00 0.00 0.00 0.00 0.00 0.00
-0.17 -0.21 -0.35 -0.37 -0.37 -0.38 -0.39 -0.38 -0.36 -0.36 -0.35 -0.34 -0.32 -0.32 -0.29 -0.27 -0.20 -0.20 -0.14 -0.11 -0.11 -0.12 -0.10 -0.09 -0.09 -0.08 -0.10 -0.14 -0.17 -0.17 -0.15 -0.11 -0.07 -0.07 -0.05 -0.04 -0.03 -0.03 -0.01 -0.00 -0.00 0.01 0.03 0.04 0.04 0.08 0.07 0.05 0.05 0.04 0.06 0.04 0.06 0.06 0.09 0.04 0.04 0.04 0.03 0.00 0.00 0.00 0.01 0.00 0.00 0.00 0.00 0.00 0.00 0.00 0.00 0.00 0.00 0.00 0.00 0.00 0.00 0.00 0.00 0.00 0.00 0.00 0.00 0.00 0.00 0.00
-0.09 -0.10 -0.13 -0.19 -0.19 -0.21 -0.32 -0.39 -0.38 -0.38 -0.36 -0.35 -0.35 -0.35 -0.33 -0.30 -0.30 -0.30 -0.27 -0.23 -0.23 -0.19 -0.13 -0.09 -0.09 -0.08 -0.11 -0.11 -0.12 -0.12 -0.13 -0.11 -0.05 -0.05 -0.03 -0.05 -0.03 -0.03 -0.01 -0.03 -0.03 -0.01 0.01 0.01 0.01 0.02 0.04 0.04 0.04 0.04 0.04 0.03 0.03 0.03 0.02 0.01 0.01 0.01 0.01 0.00 0.00 0.00 0.00 0.00 0.00 0.00 0.00 0.00 0.00 0.00 0.00 0.00 0.00 0.00 0.00 0.00 0.00 0.00 0.00 0.00 0.00 0.00 0.00 0.00 0.00 0.00
-0.10 -0.09 -0.11 -0.13 -0.13 -0.16 -0.23 -0.35 -0.39 -0.39 -0.36 -0.34 -0.32 -0.32 -0.31 -0.31 -0.30 -0.30 -0.28 -0.25 -0.25 -0.21 -0.20 -0.18 -0.18 -0.15 -0.16 -0.14 -0.13 -0.13 -0.15 -0.16 -0.12 -0.12 -0.05 -0.06 -0.06 -0.06 -0.04 -0.03 -0.03 -0.03 -0.00 0.00 0.00 0.01 0.02 0.02 0.02 0.03 0.03 0.03 0.02 0.02 0.02 0.01 0.01 0.01 0.01 0.00 0.00 0.00 0.00 0.00 0.00 0.00 0.00 0.00 0.00 0.00 0.00 0.00 0.00 0.00 0.00 0.00 0.00 0.00 0.00 0.00 0.00 0.00 0.00 0.00 0.00 0.00
-0.13 -0.10 -0.10 -0.12 -0.12 -0.12 -0.16 -0.26 -0.35 -0.35 -0.35 -0.36 -0.32 -0.32 -0.31 -0.30 -0.28 -0.28 -0.27 -0.24 -0.24 -0.23 -0.20 -0.19 -0.19 -0.19 -0.19 -0.17 -0.15 -0.15 -0.19 -0.17 -0.12 -0.12 -0.07 -0.07 -0.06 -0.06 -0.04 -0.04 -0.04 -0.03 -0.02 -0.00 -0.00 0.00 0.00 -0.00 -0.00 0.01 0.02 0.02 0.01 0.01 0.02 0.02 0.02 0.01 0.00 0.00 0.00 0.00 0.00 0.00 0.00 0.00 0.00 0.00 0.00 0.00 0.00 0.00 0.00 0.00 0.00 0.00 0.00 0.00 0.00 0.00 0.00 0.00 0.00 0.00 0.00 0.00
-0.13 -0.15 -0.11 -0.10 -0.10 -0.10 -0.10 -0.13 -0.28 -0.28 -0.28 -0.35 -0.35 -0.35 -0.31 -0.28 -0.26 -0.26 -0.25 -0.25 -0.25 -0.23 -0.20 -0.18 -0.18 -0.18 -0.17 -0.19 -0.20 -0.20 -0.21 -0.16 -0.12 -0.12 -0.08 -0.07 -0.06 -0.06 -0.04 -0.03 -0.03 -0.02 -0.01 -0.00 -0.00 0.00 -0.00 -0.00 -0.00 0.00 0.01 0.02 0.01 0.01 0.01 0.01 0.01 0.00 0.00 0.00 0.00 0.00 0.00 0.00 0.00 0.00 0.00 0.00 0.00 0.00 0.00 0.00 0.00 0.00 0.00 0.00 0.00 0.00 0.00 0.00 0.00 0.00 0.00 0.00 0.00 0.00
-0.13 -0.16 -0.14 -0.09 -0.09 -0.09 -0.10 -0.10 -0.13 -0.13 -0.13 -0.19 -0.27 -0.27 -0.33 -0.31 -0.30 -0.30 -0.29 -0.29 -0.29 -0.28 -0.25 -0.21 -0.21 -0.18 -0.15 -0.14 -0.17 -0.17 -0.19 -0.15 -0.12 -0.12 -0.09 -0.07 -0.06 -0.06 -0.05 -0.02 -0.02 -0.01 -0.01 -0.00 -0.00 -0.00 -0.00 0.00 0.00 0.00 0.01 0.01 0.01 0.01 0.01 0.00 0.00 0.00 0.00 0.00 0.00 0.00 0.00 0.00 0.00 0.00 0.00 0.00 0.00 0.00 0.00 0.00 0.00 0.00 0.00 0.00 0.00 0.00 0.00 0.00 0.00 0.00 0.00 0.00 0.00 0.00
-0.12 -0.15 -0.15 -0.09 -0.09 -0.07 -0.08 -0.08 -0.09 -0.09 -0.09 -0.13 -0.20 -0.20 -0.27 -0.27 -0.29 -0.29 -0.29 -0.30 -0.30 -0.28 -0.27 -0.22 -0.22 -0.18 -0.15 -0.13 -0.14 -0.14 -0.12 -0.12 -0.12 -0.12 -0.11 -0.07 -0.05 -0.05 -0.05 -0.02 -0.02 -0.01 -0.00 -0.00 -0.00 -0.00 -0.00 0.00 0.00 0.00 0.00 0.01 0.01 0.01 0.00 0.00 0.00 0.00 0.00 0.00 0.00 0.00 0.00 0.00 0.00 0.00 0.00 0.00 0.00 0.00 0.00 0.00 0.00 0.00 0.00 0.00 0.00 0.00 0.00 0.00 0.00 0.00 0.00 0.00 0.00 0.00
-0.11 -0.13 -0.15 -0.10 -0.10 -0.07 -0.07 -0.07 -0.07 -0.07 -0.08 -0.10 -0.14 -0.14 -0.21 -0.22 -0.25 -0.25 -0.27 -0.28 -0.28 -0.27 -0.27 -0.23 -0.23 -0.18 -0.16 -0.14 -0.12 -0.12 -0.10 -0.09 -0.08 -0.08 -0.07 -0.04 -0.03 -0.03 -0.03 -0.01 -0.01 -0.00 -0.00 0.00 0.00 0.00 0.00 0.00 0.00 0.00 0.00 0.00 0.00 0.00 0.00 0.00 0.00 -0.00 0.00 0.00 0.00 0.00 0.00 0.00 0.00 0.00 0.00 0.00 0.00 0.00 0.00 0.00 0.00 0.00 0.00 0.00 0.00 0.00 0.00 0.00 0.00 0.00 0.00 0.00 0.00 0.00
-0.10 -0.11 -0.12 -0.15 -0.15 -0.14 -0.08 -0.07 -0.07 -0.07 -0.07 -0.09 -0.12 -0.12 -0.16 -0.17 -0.22 -0.22 -0.25 -0.26 -0.26 -0.25 -0.25 -0.23 -0.23 -0.20 -0.17 -0.15 -0.12 -0.12 -0.09 -0.07 -0.05 -0.05 -0.05 -0.02 -0.02 -0.02 -0.02 -0.00 -0.00 0.00 0.00 0.00 0.00 0.00 0.00 0.00 0.00 0.00 0.00 0.00 0.01 0.01 0.00 0.00 0.00 0.00 0.00 0.00 0.00 0.00 0.00 0.00 0.00 0.00 0.00 0.00 0.00 0.00 0.00 0.00 0.00 0.00 0.00 0.00 0.00 0.00 0.00 0.00 0.00 0.00 0.00 0.00 0.00 0.00
-0.10 -0.11 -0.11 -0.11 -0.11 -0.13 -0.10 -0.06 -0.05 -0.05 -0.04 -0.06 -0.08 -0.08 -0.10 -0.14 -0.17 -0.17 -0.19 -0.23 -0.23 -0.23 -0.23 -0.24 -0.24 -0.23 -0.21 -0.18 -0.16 -0.16 -0.13 -0.09 -0.06 -0.06 -0.04 -0.02 -0.01 -0.01 -0.01 0.00 0.00 0.00 0.00 0.00 0.00 0.00 0.00 0.00 0.00 0.00 0.00 0.01 0.01 0.01 0.01 0.00 0.00 0.00 0.00 -0.00 -0.00 0.00 0.00 0.00 0.00 0.00 0.00 0.00 0.00 0.00 0.00 0.00 0.00 0.00 0.00 0.00 0.00 0.00 0.01 0.00 0.00 0.00 0.00 0.00 0.00 0.00
-0.09 -0.11 -0.11 -0.11 -0.11 -0.13 -0.12 -0.07 -0.04 -0.04 -0.05 -0.05 -0.07 -0.07 -0.10 -0.14 -0.17 -0.17 -0.19 -0.21 -0.21 -0.22 -0.22 -0.22 -0.22 -0.23 -0.22 -0.19 -0.16 -0.16 -0.12 -0.09 -0.06 -0.06 -0.04 -0.02 -0.01 -0.01 -0.00 0.00 0.00 0.00 0.00 0.00 0.00 0.00 0.00 0.00 0.00 0.00 0.00 0.00 0.01 0.01 0.01 0.01 0.01 0.01 0.01 0.00 0.00 0.00 0.00 0.00 0.00 0.00 0.00 0.00 0.00 0.00 0.00 0.00 0.00 0.00 0.00 0.00 0.01 0.01 0.01 0.01 0.01 0.01 0.00 0.00 0.00 0.01
-0.10 -0.12 -0.12 -0.12 -0.12 -0.13 -0.14 -0.10 -0.05 -0.05 -0.06 -0.06 -0.08 -0.08 -0.10 -0.12 -0.15 -0.15 -0.17 -0.20 -0.20 -0.19 -0.20 -0.22 -0.22 -0.24 -0.23 -0.20 -0.15 -0.15 -0.12 -0.08 -0.05 -0.05 -0.03 -0.01 -0.00 -0.00 0.00 0.00 0.00 0.00 0.00 0.00 0.00 0.00 0.00 0.00 0.00 0.00 0.00 -0.00 0.00 0.00 0.00 0.01 0.01 0.01 0.01 0.01 0.01 0.02 0.01 0.00 0.00 0.00 0.00 0.00 0.00 0.00 0.00 0.01 0.01 0.01 0.01 0.01 0.01 0.01 0.01 0.01 0.01 0.01 0.01 0.01 0.01 0.01
-0.12 -0.13 -0.13 -0.14 -0.14 -0.13 -0.15 -0.14 -0.09 -0.09 -0.09 -0.09 -0.09 -0.09 -0.10 -0.12 -0.14 -0.14 -0.16 -0.17 -0.17 -0.15 -0.16 -0.16 -0.16 -0.18 -0.20 -0.24 -0.21 -0.21 -0.17 -0.12 -0.08 -0.08 -0.05 -0.03 -0.01 -0.01 -0.00 0.00 0.00 0.00 0.00 0.00 0.00 0.00 0.00 0.00 0.00 0.00 0.00 0.00 -0.00 -0.00 0.00 0.01 0.01 0.01 0.02 0.02 0.02 0.01 0.01 0.01 0.01 0.01 0.01 0.01 0.01 0.01 0.01 0.01 0.01 0.01 0.01 0.01 0.01 0.01 0.01 0.01 0.01 0.01 0.01 0.01 0.01 0.01
-0.17 -0.15 -0.14 -0.17 -0.17 -0.17 -0.14 -0.14 -0.16 -0.16 -0.16 -0.12 -0.11 -0.11 -0.12 -0.14 -0.13 -0.13 -0.14 -0.14 -0.14 -0.13 -0.13 -0.13 -0.13 -0.15 -0.19 -0.25 -0.23 -0.23 -0.19 -0.13 -0.08 -0.08 -0.05 -0.02 -0.01 -0.01 -0.00 0.00 0.00 0.00 0.00 0.00 0.00 0.00 0.00 0.00 0.00 0.00 0.00 -0.00 0.00 0.00 0.00 0.01 0.01 0.02 0.02 0.02 0.02 0.02 0.02 0.02 0.02 0.02 0.02 0.01 0.02 0.02 0.02 0.01 0.01 0.01 0.01 0.01 0.01 0.01 0.01 0.01 0.01 0.01 0.01 0.01 0.01 0.01
-0.23 -0.18 -0.16 -0.20 -0.20 -0.18 -0.16 -0.14 -0.16 -0.16 -0.18 -0.16 -0.15 -0.15 -0.15 -0.16 -0.14 -0.14 -0.14 -0.14 -0.14 -0.13 -0.13 -0.12 -0.12 -0.13 -0.19 -0.24 -0.22 -0.22 -0.19 -0.14 -0.08 -0.08 -0.05 -0.02 -0.01 -0.01 -0.00 -0.00 -0.00 -0.00 0.00 0.00 0.00 0.00 0.00 0.00 0.00 0.00 0.00 -0.00 0.00 0.00 0.00 0.00 0.00 0.01 0.02 0.02 0.02 0.02 0.02 0.02 0.02 0.01 0.02 0.02 0.02 0.02 0.02 0.01 0.02 0.02 0.02 0.02 0.01 0.01 0.01 0.02 0.02 0.02 0.01 0.01 0.01 0.01
-0.33 -0.24 -0.21 -0.21 -0.21 -0.18 -0.16 -0.15 -0.16 -0.16 -0.20 -0.22 -0.19 -0.19 -0.17 -0.18 -0.16 -0.16 -0.14 -0.14 -0.14 -0.15 -0.14 -0.12 -0.12 -0.14 -0.17 -0.20 -0.19 -0.19 -0.17 -0.14 -0.10 -0.10 -0.10 -0.06 -0.02 -0.02 -0.01 -0.00 -0.00 -0.01 -0.01 -0.00 -0.00 0.00 0.00 0.00 0.00 0.00 0.00 -0.00 0.00 0.00 0.00 0.00 0.00 0.01 0.02 0.02 0.02 0.03 0.03 0.01 0.01 0.02 0.02 0.02 0.02 0.02 0.02 0.01 0.02 0.02 0.02 0.02 0.02 0.02 0.01 0.02 0.02 0.03 0.02 0.02 0.02 0.01
-0.40 -0.31 -0.23 -0.22 -0.22 -0.20 -0.20 -0.17 -0.17 -0.17 -0.24 -0.27 -0.23 -0.23 -0.19 -0.22 -0.21 -0.21 -0.20 -0.17 -0.17 -0.18 -0.17 -0.15 -0.15 -0.14 -0.14 -0.15 -0.15 -0.15 -0.13 -0.13 -0.12 -0.12 -0.09 -0.05 -0.03 -0.03 -0.01 -0.01 -0.01 -0.01 -0.00 -0.00 -0.00 0.00 0.00 0.00 0.00 0.00 0.00 0.00 0.00 0.00 0.00 0.01 0.01 0.02 0.02 0.02 0.02 0.02 0.03 0.02 0.02 0.02 0.02 0.02 0.02 0.02 0.02 0.02 0.03 0.03 0.02 0.02 0.02 0.02 0.02 0.02 0.02 0.03 0.02 0.02 0.02 0.02
-0.42 -0.43 -0.38 -0.37 -0.37 -0.26 -0.22 -0.22 -0.19 -0.19 -0.20 -0.24 -0.28 -0.28 -0.26 -0.25 -0.23 -0.23 -0.24 -0.21 -0.21 -0.20 -0.18 -0.16 -0.16 -0.14 -0.14 -0.12 -0.12 -0.12 -0.11 -0.10 -0.09 -0.09 -0.07 -0.04 -0.02 -0.02 -0.01 -0.00 -0.00 -0.00 -0.00 -0.00 -0.00 0.00 0.00 0.00 0.00 0.00 0.00 0.00 0.01 0.01 0.01 0.01 0.01 0.02 0.02 0.02 0.02 0.02 0.02 0.02 0.02 0.02 0.02 0.02 0.02 0.02 0.02 0.03 0.03 0.03 0.02 0.02 0.02 0.02 0.02 0.03 0.03 0.03 0.02 0.02 0.02 0.02
-0.51 -0.49 -0.46 -0.45 -0.45 -0.34 -0.26 -0.21 -0.20 -0.20 -0.20 -0.22 -0.27 -0.27 -0.31 -0.31 -0.26 -0.26 -0.26 -0.24 -0.24 -0.21 -0.19 -0.16 -0.16 -0.13 -0.12 -0.10 -0.10 -0.10 -0.10 -0.09 -0.07 -0.07 -0.06 -0.04 -0.02 -0.02 -0.02 -0.01 -0.01 -0.01 -0.00 -0.00 -0.00 -0.00 0.00 0.00 0.00 0.00 0.00 0.01 0.01 0.01 0.01 0.01 0.01 0.02 0.02 0.02 0.02 0.03 0.02 0.02 0.02 0.02 0.03 0.03 0.03 0.03 0.03 0.03 0.03 0.03 0.03 0.02 0.03 0.03 0.03 0.04 0.04 0.04 0.03 0.02 0.02 0.03
-0.58 -0.56 -0.53 -0.51 -0.51 -0.44 -0.32 -0.23 -0.21 -0.21 -0.21 -0.20 -0.24 -0.24 -0.28 -0.33 -0.30 -0.30 -0.28 -0.25 -0.25 -0.23 -0.20 -0.16 -0.16 -0.13 -0.13 -0.11 -0.09 -0.09 -0.07 -0.09 -0.09 -0.09 -0.07 -0.06 -0.03 -0.03 -0.02 -0.01 -0.01 -0.00 -0.00 -0.00 -0.00 0.00 0.00 0.00 0.00 0.00 0.00 0.00 0.01 0.01 0.01 0.02 0.02 0.02 0.02 0.02 0.02 0.02 0.02 0.02 0.02 0.02 0.03 0.03 0.03 0.03 0.03 0.03 0.02 0.02 0.03 0.03 0.03 0.03 0.03 0.04 0.04 0.05 0.04 0.03 0.03 0.03
-0.60 -0.60 -0.64 -0.57 -0.57 -0.54 -0.42 -0.27 -0.25 -0.25 -0.23 -0.20 -0.21 -0.21 -0.21 -0.24 -0.29 -0.29 -0.33 -0.29 -0.29 -0.25 -0.23 -0.20 -0.20 -0.15 -0.12 -0.10 -0.08 -0.08 -0.06 -0.08 -0.09 -0.09 -0.08 -0.05 -0.03 -0.03 -0.02 -0.00 -0.00 -0.00 -0.00 0.00 0.00 0.00 0.00 0.01 0.01 0.00 0.00 0.00 0.01 0.01 0.01 0.02 0.02 0.03 0.03 0.03 0.03 0.02 0.02 0.02 0.02 0.02 0.03 0.03 0.04 0.04 0.04 0.03 0.03 0.03 0.03 0.03 0.03 0.03 0.03 0.05 0.05 0.06 0.05 0.04 0.04 0.04